TimeCDT,TemperatureF,Dew PointF,Humidity,Sea Level PressureIn,VisibilityMPH,Wind Direction,Wind SpeedMPH,Gust SpeedMPH,PrecipitationIn,Events,Conditions,WindDirDegrees,DateUTC
12:15 AM,69.8,60.8,73,29.98,10.0,Calm,Calm,-,N/A,,Clear,0,2013-07-05 05:15:00
12:35 AM,69.8,62.6,78,29.98,10.0,Calm,Calm,-,N/A,,Clear,0,2013-07-05 05:35:00
12:55 AM,68.0,62.6,83,29.98,10.0,Calm,Calm,-,N/A,,Clear,0,2013-07-05 05:55:00
1:15 AM,68.0,60.8,78,29.97,10.0,Calm,Calm,-,N/A,,Clear,0,2013-07-05 06:15:00
1:35 AM,66.2,60.8,83,29.97,10.0,Calm,Calm,-,N/A,,Clear,0,2013-07-05 06:35:00
1:55 AM,66.2,60.8,83,29.97,10.0,Calm,Calm,-,N/A,,Clear,0,2013-07-05 06:55:00
2:15 AM,66.2,60.8,83,29.96,10.0,Calm,Calm,-,N/A,,Clear,0,2013-07-05 07:15:00
2:35 AM,66.2,62.6,88,29.96,10.0,Calm,Calm,-,N/A,,Clear,0,2013-07-05 07:35:00
2:55 AM,66.2,60.8,83,29.96,10.0,Calm,Calm,-,N/A,,Clear,0,2013-07-05 07:55:00
3:15 AM,66.2,60.8,83,29.96,10.0,Calm,Calm,-,N/A,,Clear,0,2013-07-05 08:15:00
3:35 AM,64.4,60.8,88,29.96,10.0,Calm,Calm,-,N/A,,Clear,0,2013-07-05 08:35:00
3:55 AM,64.4,60.8,88,29.96,10.0,Calm,Calm,-,N/A,,Clear,0,2013-07-05 08:55:00
4:15 AM,64.4,62.6,94,29.96,10.0,Calm,Calm,-,N/A,,Clear,0,2013-07-05 09:15:00
4:35 AM,62.6,60.8,94,29.96,10.0,Calm,Calm,-,N/A,,Clear,0,2013-07-05 09:35:00
4:55 AM,62.6,60.8,94,29.96,7.0,Calm,Calm,-,N/A,,Clear,0,2013-07-05 09:55:00
5:15 AM,62.6,60.8,94,29.97,10.0,Calm,Calm,-,N/A,,Clear,0,2013-07-05 10:15:00
5:35 AM,62.6,60.8,94,29.97,10.0,Calm,Calm,-,N/A,,Clear,0,2013-07-05 10:35:00
5:55 AM,62.6,60.8,94,29.97,10.0,Calm,Calm,-,N/A,,Clear,0,2013-07-05 10:55:00
6:15 AM,62.6,60.8,94,29.98,7.0,Calm,Calm,-,N/A,,Clear,0,2013-07-05 11:15:00
6:35 AM,62.6,60.8,94,29.99,7.0,Calm,Calm,-,N/A,,Clear,0,2013-07-05 11:35:00
6:55 AM,62.6,60.8,94,29.99,7.0,Calm,Calm,-,N/A,,Clear,0,2013-07-05 11:55:00
7:15 AM,64.4,60.8,88,29.99,10.0,Calm,Calm,-,N/A,,Clear,0,2013-07-05 12:15:00
7:35 AM,68.0,60.8,78,30.00,10.0,Calm,Calm,-,N/A,,Clear,0,2013-07-05 12:35:00
7:55 AM,69.8,60.8,73,30.01,10.0,Calm,Calm,-,N/A,,Clear,0,2013-07-05 12:55:00
8:15 AM,71.6,62.6,73,30.01,10.0,Calm,Calm,-,N/A,,Clear,0,2013-07-05 13:15:00
8:35 AM,73.4,62.6,69,30.02,10.0,SE,3.5,-,N/A,,Clear,140,2013-07-05 13:35:00
8:55 AM,77.0,62.6,61,30.01,10.0,SSE,3.5,-,N/A,,Clear,150,2013-07-05 13:55:00
9:15 AM,78.8,62.6,57,30.01,10.0,SSE,4.6,-,N/A,,Clear,150,2013-07-05 14:15:00
9:35 AM,80.6,62.6,54,30.01,10.0,Calm,Calm,-,N/A,,Clear,0,2013-07-05 14:35:00
9:55 AM,80.6,64.4,58,30.01,10.0,Calm,Calm,-,N/A,,Clear,0,2013-07-05 14:55:00
10:15 AM,82.4,62.6,51,30.01,10.0,Calm,Calm,-,N/A,,Clear,0,2013-07-05 15:15:00
10:35 AM,82.4,62.6,51,30.01,10.0,SE,4.6,-,N/A,,Clear,140,2013-07-05 15:35:00
10:55 AM,84.2,62.6,48,30.00,10.0,Calm,Calm,-,N/A,,Clear,0,2013-07-05 15:55:00
11:15 AM,86.0,62.6,45,30.00,10.0,SSW,4.6,-,N/A,,Clear,210,2013-07-05 16:15:00
11:35 AM,86.0,62.6,45,29.99,10.0,South,4.6,-,N/A,,Clear,180,2013-07-05 16:35:00
11:55 AM,86.0,62.6,45,29.99,10.0,SSW,5.8,-,N/A,,Clear,210,2013-07-05 16:55:00
12:15 PM,87.8,60.8,40,29.99,10.0,SE,9.2,-,N/A,,Clear,140,2013-07-05 17:15:00
12:35 PM,87.8,62.6,43,29.99,10.0,SE,5.8,-,N/A,,Clear,140,2013-07-05 17:35:00
12:55 PM,89.6,60.8,38,29.98,10.0,South,5.8,-,N/A,,Scattered Clouds,170,2013-07-05 17:55:00
1:15 PM,89.6,60.8,38,29.98,10.0,SSE,3.5,-,N/A,,Scattered Clouds,150,2013-07-05 18:15:00
1:35 PM,89.6,60.8,38,29.97,10.0,Calm,Calm,-,N/A,,Scattered Clouds,0,2013-07-05 18:35:00
1:55 PM,89.6,60.8,38,29.96,10.0,Calm,Calm,-,N/A,,Scattered Clouds,0,2013-07-05 18:55:00
2:15 PM,89.6,59.0,36,29.95,10.0,NE,3.5,-,N/A,,Clear,50,2013-07-05 19:15:00
2:35 PM,89.6,59.0,36,29.95,10.0,SE,5.8,-,N/A,,Scattered Clouds,130,2013-07-05 19:35:00
2:55 PM,91.4,62.6,38,29.95,10.0,East,10.4,18.4,N/A,,Scattered Clouds,100,2013-07-05 19:55:00
3:15 PM,91.4,60.8,36,29.94,10.0,East,9.2,-,N/A,,Clear,100,2013-07-05 20:15:00
3:35 PM,91.4,60.8,36,29.94,10.0,ENE,8.1,-,N/A,,Scattered Clouds,60,2013-07-05 20:35:00
3:55 PM,91.4,57.2,31,29.92,10.0,East,8.1,-,N/A,,Clear,80,2013-07-05 20:55:00
4:15 PM,91.4,55.4,29,29.91,10.0,NE,3.5,-,N/A,,Clear,50,2013-07-05 21:15:00
4:35 PM,93.2,55.4,28,29.90,10.0,ENE,6.9,-,N/A,,Clear,70,2013-07-05 21:35:00
4:55 PM,93.2,53.6,26,29.89,10.0,East,6.9,-,N/A,,Clear,90,2013-07-05 21:55:00
5:15 PM,93.2,55.4,28,29.89,10.0,East,5.8,-,N/A,,Clear,100,2013-07-05 22:15:00
5:35 PM,93.2,55.4,28,29.88,10.0,ESE,9.2,-,N/A,,Scattered Clouds,110,2013-07-05 22:35:00
5:55 PM,91.4,53.6,28,29.88,10.0,NE,4.6,-,N/A,,Scattered Clouds,50,2013-07-05 22:55:00
6:15 PM,93.2,55.4,28,29.88,10.0,East,5.8,-,N/A,,Clear,90,2013-07-05 23:15:00
6:35 PM,91.4,59.0,34,29.88,10.0,East,9.2,-,N/A,,Scattered Clouds,100,2013-07-05 23:35:00
6:55 PM,91.4,57.2,31,29.88,10.0,East,9.2,-,N/A,,Clear,100,2013-07-05 23:55:00
7:15 PM,89.6,59.0,36,29.88,10.0,ESE,5.8,-,N/A,,Clear,120,2013-07-06 00:15:00
7:35 PM,89.6,59.0,36,29.89,10.0,ESE,6.9,-,N/A,,Clear,110,2013-07-06 00:35:00
7:55 PM,87.8,59.0,38,29.89,10.0,ESE,3.5,-,N/A,,Clear,110,2013-07-06 00:55:00
8:15 PM,86.0,59.0,40,29.89,10.0,East,5.8,-,N/A,,Clear,90,2013-07-06 01:15:00
8:35 PM,86.0,59.0,40,29.90,10.0,ESE,3.5,-,N/A,,Clear,110,2013-07-06 01:35:00
8:55 PM,82.4,59.0,45,29.90,10.0,ESE,3.5,-,N/A,,Clear,110,2013-07-06 01:55:00
9:15 PM,82.4,59.0,45,29.91,10.0,ESE,3.5,-,N/A,,Clear,120,2013-07-06 02:15:00
9:35 PM,82.4,59.0,45,29.91,10.0,SE,3.5,-,N/A,,Clear,130,2013-07-06 02:35:00
9:55 PM,80.6,59.0,48,29.91,10.0,SE,3.5,-,N/A,,Clear,130,2013-07-06 02:55:00
10:15 PM,78.8,60.8,54,29.93,10.0,ESE,3.5,-,N/A,,Clear,120,2013-07-06 03:15:00
10:35 PM,78.8,60.8,54,29.93,10.0,ESE,3.5,-,N/A,,Clear,120,2013-07-06 03:35:00
10:55 PM,78.8,60.8,54,29.93,10.0,ESE,3.5,-,N/A,,Clear,120,2013-07-06 03:55:00
11:15 PM,78.8,59.0,51,29.94,10.0,ESE,3.5,-,N/A,,Clear,120,2013-07-06 04:15:00
11:35 PM,78.8,59.0,51,29.94,10.0,ESE,3.5,-,N/A,,Clear,120,2013-07-06 04:35:00
11:55 PM,77.0,59.0,54,29.94,10.0,Calm,Calm,-,N/A,,Clear,0,2013-07-06 04:55:00